Location: Dittelspoint
(48.7198°N, 10.7214°E)
Time: 17:27:15
(UTC+00:00)

STARLINK-1217 - Pass Details

Date: 09 April 2020
Orbit: 378 x 381 km, 53.0° (Epoch: 29 May)

Event Time Altitude Azimuth Distance (km) Brightness Sun altitude
Rises 19:52:29 0° 291° (WNW) 2,261 8.3 -17.6°
Reaches altitude 10° 19:54:41 10° 280° (W) 1,404 6.7 -17.9°
Maximum altitude 19:57:27 28° 218° (SW) 745 4.3 -18.3°
Enters shadow 19:57:43 28° 208° (SSW) 754 4.2 -18.3°
